Jendouba, Tunisia

9:37 AM CET on October 23, 2019 (GMT +0100)
Jendouba

Weather History for DTTN - August, 2019

Change the Weather History Date:

Sunday, August 4, 2019

  Actual Average Record
Temperature  
Mean Temperature 89 °F -  
Max Temperature 105 °F 96 °F - ()
Min Temperature 73 °F 65 °F - ()
Cooling Degree Days 24    
Growing Degree Days 39 (Base 50)    
Moisture  
Dew Point 50 °F    
Average Humidity 27    
Maximum Humidity 47    
Minimum Humidity 6    
Precipitation  
Precipitation 0.00 in 0.02 in - ()
Sea Level Pressure  
Sea Level Pressure 29.93 in    
Wind  
Wind Speed 4 mph ()    
Max Wind Speed 16 mph    
Max Gust Speed -    
Visibility 6.3 miles    
Events      
T = Trace of Precipitation, MM = Missing Value Source: Averaged Metar Reports

Daily Weather History Graph

Daily Weather History Graph

Search for Another Location

Airport or City:

Astronomy

Aug. 04, 2019 Rise Set
Actual Time 5:33 AM CET 7:28 PM CET
Civil Twilight 5:04 AM CET 7:56 PM CET
Nautical Twilight 4:30 AM CET 8:30 PM CET
Astronomical Twilight 3:53 AM CET 9:07 PM CET
Moon 9:13 AM CET (8/4) 10:04 PM CET (8/4)
Length of Visible Light 14h 51m
Length of Day
13h 55m
Waxing Crescent, 16% of the Moon is Illuminated
Aug 4
Waxing Crescent
Aug 7
First Quarter
Aug 15
Full
Aug 23
Last Quarter
Aug 30
New

Hourly Weather History & Observations

Time (CET) Temp. Heat Index Dew Point Humidity Pressure Visibility Wind Dir Wind Speed Gust Speed Precip Events Conditions
1:00 AM 78 °F - 52 °F 30% 29.91 in - NNE 3.5 mph - -  
1:00 AM 78.8 °F - 51.8 °F 39% 29.92 in - Variable 2.3 mph - N/A   Unknown
2:00 AM 77.0 °F - 51.8 °F 41% - 5.0 mi West 2.3 mph - N/A   Unknown
3:00 AM 75.2 °F - 51.8 °F 44% 29.92 in 5.0 mi SSW 4.6 mph - N/A   Unknown
4:00 AM 74 °F - 53 °F 37% 29.95 in - South 3.5 mph - -  
4:00 AM 75.2 °F - 53.6 °F 47% 29.98 in - SSW 3.5 mph - N/A   Unknown
5:00 AM 75.2 °F - 51.8 °F 44% 29.92 in - Variable 1.2 mph - N/A   Unknown
7:00 AM 75 °F - 54 °F 38% 29.95 in 6 mi East 2.3 mph - -   Scattered Clouds
7:00 AM 75.2 °F - 53.6 °F 47% 29.95 in 6.2 mi East 2.3 mph - N/A   Partly Cloudy
8:00 AM 82.4 °F 81.4 °F 53.6 °F 37% 29.98 in 6.2 mi Calm Calm - N/A   Partly Cloudy
9:00 AM 87.8 °F - 51.8 °F 29% 29.98 in 6.2 mi North 2.3 mph - N/A   Partly Cloudy
10:00 AM 91 °F - 51 °F 16% 29.95 in 9 mi ENE 2.3 mph - -   Scattered Clouds
10:00 AM 91.4 °F - 50.0 °F 24% 29.98 in 6.2 mi ENE 2.3 mph - N/A   Partly Cloudy
11:00 AM 95.0 °F - 50.0 °F 22% 29.95 in 6.2 mi East 2.3 mph - N/A   Partly Cloudy
12:00 PM 98.6 °F - 46.4 °F 17% 29.95 in 6.2 mi East 3.5 mph - N/A   Partly Cloudy
1:00 PM 100 °F - 47 °F 10% 29.90 in 9 mi East 5.8 mph - -   Scattered Clouds
1:00 PM 100.4 °F - 48.2 °F 17% 29.92 in 6.2 mi East 5.8 mph - N/A   Partly Cloudy
2:00 PM 102.2 °F - 41.0 °F 12% 29.92 in 6.2 mi East 4.6 mph - N/A   Partly Cloudy
3:00 PM 104.0 °F - 41.0 °F 12% 29.89 in 6.2 mi NE 8.1 mph - N/A   Partly Cloudy
4:00 PM 105 °F - 42 °F 6% 29.85 in 9 mi NE 5.8 mph - -   Scattered Clouds
4:00 PM 104.0 °F - 41.0 °F 12% 29.89 in 6.2 mi NE 5.8 mph - N/A   Partly Cloudy
6:00 PM 102.2 °F - 46.4 °F 15% 29.86 in 6.2 mi NE 12.7 mph - N/A   Partly Cloudy
7:00 PM 96.8 °F - 50.0 °F 20% 29.89 in 6.2 mi NE 15.0 mph - N/A   Partly Cloudy
8:00 PM 93.2 °F - 51.8 °F 24% 29.92 in 6.2 mi ENE 16.1 mph - N/A   Partly Cloudy
9:00 PM 89.6 °F 87.3 °F 53.6 °F 29% 29.95 in 6.2 mi ENE 10.4 mph - N/A   Partly Cloudy
10:00 PM 87 °F - 55 °F 24% 29.94 in 5 mi NE 9.2 mph - -   Scattered Clouds
10:00 PM 86.0 °F 84.5 °F 55.4 °F 35% 29.95 in 5.0 mi NE 9.2 mph - N/A   Partly Cloudy
11:00 PM 84.2 °F 83.0 °F 55.4 °F 37% 29.98 in 5.0 mi NE 5.8 mph - N/A   Partly Cloudy